sat.trackr.live / text

‹ back to catalog

KUIPER-00285

NORAD 68589 · 2026-072S

PAYLOAD ACTIVE UNKNOWN

§ Identity

Operator
Country
US
Launch date
2026-04-04
Launch site
AFETR
Launch vehicle
Mass (kg)
RCS (m²)

External: N2YO · Heavens-Above · Gunter

§ Orbital elements

Epoch: 2026-09-19T23:01:48.766944Z

Period
97.30 min
Inclination
51.9046°
Eccentricity
0.0001460
Mean motion
14.79941436 rev/d
Perigee alt
628.5 km
Apogee alt
630.5 km
Semi-major
7,007.6 km
B*
2.7300e-4
RAAN
114.1578°
Arg perigee
83.5279°
Mean anomaly
276.5850°
Rev number
2,546

§ Raw data

KUIPER-002851 68589U 26072S   26262.95959221  .00001861  00000+0  27300-3 0  99932 68589  51.9046 114.1578 0001460  83.5279 276.5850 14.79941436 25463

JSON: /api/v1/satellites/68589 · /tle

For live sub-satellite position, see the globe view (requires WebGL).

§ Visibility from observer

Set your observer location to see the next 7 days of passes ≥ 10°. The values pass through the URL so the page stays shareable.

No JS? Fill the form by hand. The geolocation button needs JavaScript.